This is the latest recevied weather packets stored in our database for station/object W5CRT. If no packets are shown the sender has not sent any weather packets the latest 10 day(s).
| Time | Temp. | Humidity | Pressure | Rain* | Wind** | Luminosity | Snow |
|---|---|---|---|---|---|---|---|
| 1777823467 | 23.89° C | 44% | 1019.6 hPa | 0 mm | - | 785 W/m² | - |
| 1777823164 | 24.44° C | 43% | 1019.7 hPa | 0 mm | - | 772 W/m² | - |
| 1777822861 | 23.89° C | 46% | 1019.6 hPa | 0 mm | - | 757 W/m² | - |
| 1777822559 | 23.33° C | 47% | 1019.5 hPa | 0 mm | - | 739 W/m² | - |
| 1777822256 | 23.33° C | 48% | 1019.5 hPa | 0 mm | - | 724 W/m² | - |
| 1777821954 | 23.33° C | 48% | 1019.4 hPa | 0 mm | - | 706 W/m² | - |
| 1777821652 | 23.33° C | 49% | 1019.2 hPa | 0 mm | - | 689 W/m² | - |
| 1777821350 | 22.78° C | 51% | 1019.6 hPa | 0 mm | - | 671 W/m² | - |
| 1777821046 | 22.78° C | 50% | 1019.2 hPa | 0 mm | - | 652 W/m² | - |
| 1777820742 | 22.78° C | 51% | 1019.4 hPa | 0 mm | - | 630 W/m² | - |
| 1777820438 | 22.22° C | 51% | 1019.3 hPa | 0 mm | - | 615 W/m² | - |
| 1777820137 | 21.67° C | 52% | 1019.5 hPa | 0 mm | - | 595 W/m² | - |
| 1777819833 | 21.67° C | 54% | 1019.2 hPa | 0 mm | - | 574 W/m² | - |
| 1777819531 | 21.67° C | 52% | 1019.3 hPa | 0 mm | - | 554 W/m² | - |
| 1777819228 | 21.11° C | 55% | 1019.2 hPa | 0 mm | - | 532 W/m² | - |
| 1777818925 | 21.11° C | 56% | 1019.2 hPa | 0 mm | - | 509 W/m² | - |
| 1777818621 | 20.56° C | 55% | 1019.3 hPa | 0 mm | - | 486 W/m² | - |
| 1777818319 | 20.56° C | 55% | 1019.2 hPa | 0 mm | - | 462 W/m² | - |
| 1777818015 | 20.56° C | 55% | 1019.3 hPa | 0 mm | - | 436 W/m² | - |
| 1777817712 | 20° C | 56% | 1019.2 hPa | 0 mm | - | 415 W/m² | - |
| 1777817409 | 20° C | 54% | 1019.4 hPa | 0 mm | - | 393 W/m² | - |
| 1777817105 | 20° C | 55% | 1019.4 hPa | 0 mm | - | 372 W/m² | - |
| 1777816802 | 20° C | 58% | 1019.2 hPa | 0 mm | - | 349 W/m² | - |
| 1777816500 | 19.44° C | 55% | 1019.1 hPa | 0 mm | - | 329 W/m² | - |
| 1777816197 | 19.44° C | 59% | 1019.2 hPa | 0 mm | - | 311 W/m² | - |
* Rain latest hour (hover to see other rain measurements)
** Current wind speed in m/s (hover to see current wind gust speed)